Location: Baggettsville
(36.4767°N, 86.7303°W)
Time: 23:43:46
(UTC+00:00)

ISS - Visible Passes

Search period start: 28 September 2021 00:00
Search period end: 08 October 2021 00:00
Orbit: 417 x 422 km, 51.6° (Epoch: 28 September)

Date Brightness Start Highest point End Pass type
(mag) Time Alt. Az. Time Alt. Az. Time Alt. Az.
01 Oct -1.3 01:21:53 10° NNW 01:23:01 15° N 01:23:01 15° N visible
02 Oct -1.5 00:35:04 10° N 00:36:52 14° NNE 00:37:37 13° NE visible
03 Oct -1.8 01:23:33 10° NW 01:25:15 25° NNW 01:25:15 25° NNW visible
04 Oct -2.6 00:36:28 10° NNW 00:39:27 28° NNE 00:40:01 27° NE visible
04 Oct -2.0 23:49:30 10° NNW 23:52:01 19° NNE 23:54:32 10° ENE visible
05 Oct -2.0 01:25:45 10° WNW 01:27:52 33° W 01:27:52 33° W visible
06 Oct -3.9 00:38:24 10° NW 00:41:47 86° NE 00:42:53 40° SE visible
06 Oct -3.4 23:51:13 10° NW 23:54:29 47° NE 23:57:45 10° ESE visible
07 Oct -1.0 01:29:02 10° W 01:31:00 15° SW 01:31:04 15° SW visible
